Alert Airport, Northwest Territories

9:14 PM MDT on September 27, 2016 (GMT -0600)
Alert

Weather History for CYLT - September, 2013

Change the Weather History Date:

Monday, September 16, 2013

  Actual Average Record
Temperature  
Mean Temperature 19 °F -  
Max Temperature 23 °F - - ()
Min Temperature 15 °F - - ()
Degree Days  
Heating Degree Days 46    
Moisture  
Dew Point 18 °F    
Average Humidity 95    
Maximum Humidity 100    
Minimum Humidity 86    
Precipitation  
Precipitation 0.00 in - - ()
Sea Level Pressure  
Sea Level Pressure 30.02 in    
Wind  
Wind Speed 4 mph ()    
Max Wind Speed 17 mph    
Max Gust Speed -    
Visibility 3.6 miles    
Events Fog , Snow    
T = Trace of Precipitation, MM = Missing Value Source: Averaged Metar Reports

Daily Weather History Graph

Daily Weather History Graph

Search for Another Location

Airport or City:

Trip Planner

Search our weather history database for the weather conditions in past years. The results will help you decide how hot, cold, wet, or windy it might be!

Date:

Astronomy

Sep. 16, 2013 Rise Set
Actual Time 2:17 AM MDT 5:41 PM MDT
Civil Twilight Sun does not set Sun does not set
Nautical Twilight Sun does not set Sun does not set
Astronomical Twilight Sun does not set Sun does not set
Moon No Moon Rise No Moon Set
Length of Visible Light 24h 00m
Length of Day
15h 24m
Waxing Gibbous, 90% of the Moon is Illuminated
Sep 16
Waxing Gibbous
Sep 19
Full
Sep 26
Last Quarter
Oct 4
New
Oct 11
First Quarter

Hourly Weather History & Observations

Time (MDT) Temp. Windchill Dew Point Humidity Pressure Visibility Wind Dir Wind Speed Gust Speed Precip Events Conditions
12:00 AM 21.2 °F - 19.4 °F 93% 30.18 in 3.0 mi Calm Calm - N/A Snow Light Snow
1:00 AM 21.2 °F - 19.4 °F 93% 30.17 in 2.5 mi SE 2.3 mph - N/A Snow Light Snow
2:00 AM 17.6 °F - 17.6 °F 100% 30.17 in 2.5 mi Calm Calm - N/A Snow Light Snow
3:00 AM 15.8 °F - 15.8 °F 100% 30.16 in 3.0 mi Calm Calm - N/A Snow Light Snow
4:00 AM 17.6 °F - 15.8 °F 93% 30.14 in 5.0 mi NNW 2.3 mph - N/A Snow Light Snow
5:00 AM 17.6 °F - 15.8 °F 93% 30.13 in 5.0 mi Calm Calm - N/A Snow Light Snow
6:00 AM 17.6 °F - 14.0 °F 86% 30.12 in 3.0 mi Calm Calm - N/A   Overcast
7:00 AM 17.6 °F - 17.6 °F 100% 30.10 in 1.2 mi East 2.3 mph - N/A   Overcast
8:00 AM 17.6 °F 10.7 °F 17.6 °F 100% 30.09 in 8.0 mi SE 4.6 mph - N/A   Mostly Cloudy
9:00 AM 19.4 °F 14.3 °F 17.6 °F 93% 30.06 in 9.0 mi SW 3.5 mph - N/A   Mostly Cloudy
10:00 AM 19.4 °F 10.4 °F 17.6 °F 93% 30.04 in 9.0 mi NNW 6.9 mph - N/A   Mostly Cloudy
11:00 AM 17.6 °F 12.3 °F 15.8 °F 93% 30.02 in 10.0 mi WNW 3.5 mph - N/A   Mostly Cloudy
12:00 PM 19.4 °F - 17.6 °F 93% 30.00 in 10.0 mi Calm Calm - N/A   Mostly Cloudy
12:41 PM - - - N/A% - 8.0 mi West 2.3 mph - N/A   Overcast
1:00 PM 19.4 °F 14.3 °F 17.6 °F 93% 29.98 in 8.0 mi NNW 3.5 mph - N/A   Overcast
2:42 PM - - - N/A% - 0.8 mi NW 3.5 mph - N/A   Overcast
3:00 PM 21.2 °F 14.9 °F 19.4 °F 93% 29.94 in 0.5 mi NW 4.6 mph - N/A Fog , Snow Light Snow
4:00 PM 21.2 °F 13.6 °F 21.2 °F 100% 29.92 in 0.5 mi NNW 5.8 mph - N/A Fog , Snow Light Snow
5:00 PM 23.0 °F 13.1 °F 21.2 °F 93% 29.91 in 0.5 mi North 9.2 mph - N/A Fog , Snow Light Snow
6:00 PM 21.2 °F 8.3 °F 21.2 °F 100% 29.90 in 0.5 mi NNW 13.8 mph - N/A Fog , Snow Light Snow
7:00 PM 21.2 °F 9.5 °F 19.4 °F 93% 29.89 in 0.5 mi North 11.5 mph - N/A Fog , Snow Light Snow
8:00 PM 21.2 °F 9.5 °F 19.4 °F 93% 29.87 in 0.5 mi NNW 11.5 mph - N/A Fog , Snow Light Snow
9:00 PM 21.2 °F 8.3 °F 19.4 °F 93% 29.86 in 0.5 mi NNW 13.8 mph - N/A Fog , Snow Light Snow
10:00 PM 21.2 °F 7.8 °F 19.4 °F 93% 29.86 in 0.5 mi NNW 15.0 mph - N/A Fog , Snow Light Snow
10:31 PM - - - N/A% - 0.8 mi NNW 12.7 mph - N/A   Overcast
11:00 PM 19.4 °F 4.5 °F 17.6 °F 93% 29.85 in 0.8 mi NNW 17.3 mph - N/A Snow Light Snow